STARLINK AQ (44273 NORAD) Tracking and Keplerian Element Data

This shows tracking and keplerian element data for the satellite.

Feedback or suggestion? Click here.




ElementValue
Catalog44273
NameSTARLINK AQ
Epoch Orbit469
Epoch Day173.95702127
Epoch Year2019
RAAN33.3846
Inclination53.0044
Eccentricity0.0006591
Argument of Perigee8.921
Mean Anonmoly351.191
Mean Motion15.43479005
Decay Rate0.00010126
L11 44273U 19029AQ 19173.95702127 .00010126 00000-0 23139-3 0 9996
L22 44273 53.0044 33.3846 0006591 8.9210 351.1910 15.43479005 4693

Live tracking and technical data element details for STARLINK AQ (NORAD 44273). STARLINK AQ can be tracked NOW for your location showing map with azimuth and elevation plus other details from your city location.

Track the satellite on the map from your city or location and see movement details for azimuth, elevation, latitude, longitude, range, height, and movement on the map or in text.







IsCatalogInMostPopularTable: catalog: 44273, numindb: 31
Update: records affected: 1



GetName: 44273 STARLINK AQ

Hit Count: updated at: Tue, 16 Jul 2019 14:37:35 GMT